This is the latest recevied weather packets stored in our database for station/object OE9FWV-10. If no packets are shown the sender has not sent any weather packets the latest 10 day(s).
| Time | Temp. | Humidity | Pressure | Rain* | Wind** | Luminosity | Snow |
|---|---|---|---|---|---|---|---|
| 1787935135 | 28.89° C | 27% | 1019.3 hPa | - | - | - | - |
| 1787934235 | 28.89° C | 27% | 1019.4 hPa | - | - | - | - |
| 1787933335 | 29.44° C | 28% | 1019.4 hPa | - | - | - | - |
| 1787932434 | 29.44° C | 27% | 1019.1 hPa | - | - | - | - |
| 1787931534 | 29.44° C | 27% | 1018.5 hPa | - | - | - | - |
| 1787930634 | 29.44° C | 27% | 1018.6 hPa | - | - | - | - |
| 1787929734 | 29.44° C | 27% | 1018.5 hPa | - | - | - | - |
| 1787928834 | 29.44° C | 27% | 1018.6 hPa | - | - | - | - |
| 1787927934 | 30° C | 27% | 1018.6 hPa | - | - | - | - |
| 1787927034 | 30° C | 26% | 1018.7 hPa | - | - | - | - |
| 1787926134 | 30.56° C | 25% | 1018.7 hPa | - | - | - | - |
| 1787925234 | 31.67° C | 24% | 1018.9 hPa | - | - | - | - |
| 1787924334 | 30.56° C | 25% | 1019.1 hPa | - | - | - | - |
| 1787923434 | 30.56° C | 25% | 1019.3 hPa | - | - | - | - |
| 1787922534 | 31.11° C | 24% | 1018.1 hPa | - | - | - | - |
| 1787921634 | 31.67° C | 23% | 1018.7 hPa | - | - | - | - |
| 1787920734 | 33.89° C | 22% | 1018.5 hPa | - | - | - | - |
| 1787919834 | 32.78° C | 24% | 1018.6 hPa | - | - | - | - |
| 1787918933 | 31.67° C | 25% | 1019.3 hPa | - | - | - | - |
| 1787918033 | 30° C | 26% | 1019.7 hPa | - | - | - | - |
| 1787917133 | 29.44° C | 26% | 1019.8 hPa | - | - | - | - |
| 1787916233 | 29.44° C | 26% | 1019.4 hPa | - | - | - | - |
| 1787915333 | 29.44° C | 26% | 1018.7 hPa | - | - | - | - |
| 1787914433 | 30° C | 26% | 1018.3 hPa | - | - | - | - |
| 1787913533 | 30° C | 26% | 1017.6 hPa | - | - | - | - |
* Rain since midnight (hover to see other rain measurements)
** Current wind speed in m/s (hover to see current wind gust speed)